EW9532 Weather Reports


Display with metric or nautical units.
time (UTC)temp
F
wind
direction
speed
MPH
gust
MPH
rain 1hr
in
rain 24hr
in
rain mn
in
humidity
%
barometer
mb
20240424054328 72 92 3.0 8.0 0.00 0.00 0.00 89 1015.6
20240424053830 72 266 3.0 8.0 0.00 0.00 0.00 89 1015.7
20240424053331 72 34 3.0 8.0 0.00 0.00 0.00 89 1015.7
20240424052832 72 332 3.0 8.0 0.00 0.00 0.00 89 1015.8
20240424052624 73 69 2.0 6.0 0.00 0.00 0.00 89 1015.9
20240424051831 73 44 3.0 7.0 0.00 0.00 0.00 88 1015.9
20240424051329 73 349 5.0 7.0 0.00 0.00 0.00 88 1015.9
20240424050830 73 116 2.0 6.0 0.00 0.00 0.00 88 1015.9
20240424050330 73 294 2.0 8.0 0.00 0.00 0.00 88 1016.1
20240424045830 73 345 3.0 8.0 0.00 0.00 0.00 88 1016.1
20240424045330 73 232 3.0 7.0 0.00 0.00 0.00 87 1016.1
20240424044829 73 142 3.0 7.0 0.00 0.00 0.00 87 1016.2
20240424044329 73 242 4.0 7.0 0.00 0.00 0.00 87 1016.2
20240424043829 74 49 4.0 7.0 0.00 0.00 0.00 87 1016.3
20240424043330 74 194 4.0 8.0 0.00 0.00 0.00 87 1016.3
20240424043124 74 202 5.0 8.0 0.00 0.00 0.00 86 1016.3
20240424042329 74 80 4.0 7.0 0.00 0.00 0.00 86 1016.3
20240424041829 74 66 4.0 6.0 0.00 0.00 0.00 86 1016.3
20240424041329 74 224 3.0 6.0 0.00 0.00 0.00 86 1016.2
20240424040830 74 179 3.0 6.0 0.00 0.00 0.00 86 1016.3
20240424040331 74 191 3.0 6.0 0.00 0.00 0.00 86 1016.3
20240424035830 75 40 4.0 6.0 0.00 0.00 0.00 85 1016.3
20240424035623 75 131 4.0 9.0 0.00 0.00 0.00 85 1016.1
20240424034830 75 265 3.0 9.0 0.00 0.00 0.00 85 1016.0
20240424034329 75 199 4.0 8.0 0.00 0.00 0.00 85 1016.0
20240424033829 75 338 4.0 8.0 0.00 0.00 0.00 85 1016.0
20240424033330 75 295 3.0 8.0 0.00 0.00 0.00 85 1016.0
20240424032830 75 289 3.0 9.0 0.00 0.00 0.00 85 1015.9
20240424032625 75 319 4.0 9.0 0.00 0.00 0.00 85 1015.9
20240424031828 75 186 4.0 7.0 0.00 0.00 0.00 85 1015.9
20240424031328 75 264 4.0 6.0 0.00 0.00 0.00 84 1015.9
20240424030829 75 215 2.0 7.0 0.00 0.00 0.00 84 1015.8
20240424030331 75 152 4.0 7.0 0.00 0.00 0.00 84 1015.8
20240424025908 75 77 3.0 8.0 0.00 0.00 0.00 84 1015.7
20240424024831 75 330 3.0 8.0 0.00 0.00 0.00 83 1015.5
20240424024621 76 134 3.0 8.0 0.00 0.00 0.00 83 1015.4
20240424023829 76 270 4.0 7.0 0.00 0.00 0.00 83 1015.4
20240424023624 76 244 3.0 8.0 0.00 0.00 0.00 83 1015.3
20240424022830 76 240 4.0 8.0 0.00 0.00 0.00 83 1015.1
20240424022330 76 143 3.0 7.0 0.00 0.00 0.00 83 1015.2
20240424021829 76 122 3.0 8.0 0.00 0.00 0.00 82 1015.0
20240424021329 76 278 3.0 8.0 0.00 0.00 0.00 82 1014.9
20240424020830 76 291 3.0 7.0 0.00 0.00 0.00 82 1014.7
20240424020333 76 203 4.0 7.0 0.00 0.00 0.00 81 1014.7
20240424020126 77 332 3.0 9.0 0.00 0.00 0.00 81 1014.6
20240424015334 77 295 5.0 9.0 0.00 0.00 0.00 81 1014.3
20240424015126 77 342 5.0 9.0 0.00 0.00 0.00 81 1014.1
20240424014332 77 297 4.0 8.0 0.00 0.00 0.00 80 1014.3
20240424013829 77 335 4.0 7.0 0.00 0.00 0.00 80 1014.2
20240424013330 78 156 3.0 7.0 0.00 0.00 0.00 80 1014.2
20240424012827 78 329 3.0 7.0 0.00 0.00 0.00 79 1014.3
20240424012327 78 329 3.0 8.0 0.00 0.00 0.00 79 1014.1
20240424011825 78 115 4.0 9.0 0.00 0.00 0.00 79 1014.2
20240424011320 78 337 3.0 8.0 0.00 0.00 0.00 78 1014.1
20240424010818 78 172 4.0 9.0 0.00 0.00 0.00 78 1014.0
20240424010318 78 271 5.0 10.0 0.00 0.00 0.00 78 1014.0
20240424005817 79 354 5.0 10.0 0.00 0.00 0.00 78 1014.0
20240424005316 79 216 3.0 10.0 0.00 0.00 0.00 77 1014.0
20240424004811 79 72 5.0 13.0 0.00 0.00 0.00 77 1013.8
20240424004312 80 131 4.0 13.0 0.00 0.01 0.00 76 1013.9
20240424003807 80 37 5.0 10.0 0.00 0.01 0.00 75 1013.8
20240424003601 80 86 4.0 8.0 0.00 0.01 0.00 76 1013.8
20240424002806 80 226 2.0 12.0 0.00 0.01 0.00 76 1013.9
20240424002559 80 103 5.0 12.0 0.00 0.01 0.00 75 1013.8
20240424002055 80 186 5.0 10.0 0.00 0.01 0.00 75 1013.8
20240424001329 80 294 6.0 10.0 0.00 0.01 0.00 74 1013.9
20240424000250 81 11 5.0 11.0 0.00 0.01 0.00 74 1013.8
20240423235747 81 99 4.0 11.0 0.00 0.01 0.00 74 1013.8
20240423235245 82 328 7.0 11.0 0.00 0.01 0.00 73 1013.8
20240423235138 82 54 4.0 12.0 0.00 0.01 0.00 73 1013.8
20240423233731 82 347 6.0 11.0 0.00 0.01 0.00 73 1013.9
20240423233231 82 18 5.0 9.0 0.00 0.01 0.00 73 1013.8
20240423232729 82 309 4.0 9.0 0.00 0.01 0.00 74 1013.8
20240423232230 82 254 5.0 11.0 0.00 0.01 0.00 73 1013.8
20240423231730 82 314 6.0 11.0 0.00 0.01 0.00 72 1013.7
20240423231230 83 55 6.0 12.0 0.00 0.01 0.00 72 1013.7
20240423230730 83 281 4.0 12.0 0.00 0.01 0.00 72 1013.8
20240423230225 83 39 5.0 12.0 0.00 0.01 0.00 71 1013.8
20240423225725 83 212 5.0 11.0 0.00 0.01 0.00 72 1013.8
20240423225219 83 79 4.0 8.0 0.00 0.01 0.00 72 1013.9
20240423224719 83 281 3.0 9.0 0.00 0.01 0.00 71 1013.8
20240423224213 83 300 6.0 9.0 0.00 0.01 0.00 70 1014.0
20240423223712 83 108 5.0 9.0 0.00 0.01 0.00 71 1013.9
20240423223212 83 168 3.0 10.0 0.00 0.01 0.00 71 1013.9
20240423222712 83 52 6.0 10.0 0.00 0.01 0.00 72 1013.8
20240423222210 82 309 5.0 11.0 0.00 0.01 0.00 72 1013.9
20240423221710 83 84 4.0 11.0 0.00 0.01 0.00 71 1013.8
20240423221204 83 207 5.0 10.0 0.00 0.01 0.00 73 1013.9
20240423220702 82 278 5.0 9.0 0.00 0.01 0.00 72 1014.0
20240423220204 82 210 5.0 13.0 0.00 0.01 0.00 71 1014.0
20240423215703 82 97 4.0 13.0 0.00 0.01 0.00 72 1014.0
20240423215204 82 326 4.0 10.0 0.00 0.01 0.00 72 1014.0
20240423214957 82 169 5.0 12.0 0.00 0.01 0.00 71 1014.1
20240423214204 82 349 5.0 12.0 0.00 0.01 0.00 71 1014.3
20240423213703 83 158 3.0 10.0 0.00 0.01 0.00 71 1014.2
20240423213456 82 203 4.0 6.0 0.00 0.01 0.00 72 1014.4
20240423212703 82 326 3.0 11.0 0.00 0.01 0.00 73 1014.4
20240423212500 82 216 3.0 11.0 0.00 0.01 0.00 72 1014.6
20240423211704 83 141 5.0 9.0 0.00 0.01 0.00 71 1014.6
20240423211203 83 212 4.0 7.0 0.00 0.01 0.00 70 1014.6
20240423210703 83 156 3.0 10.0 0.00 0.01 0.00 70 1014.7
20240423210202 83 359 3.0 10.0 0.00 0.01 0.00 72 1014.6
20240423205703 83 273 4.0 8.0 0.00 0.01 0.00 71 1014.8
20240423205203 83 170 2.0 7.0 0.00 0.01 0.00 72 1014.7
20240423204704 82 207 3.0 8.0 0.00 0.01 0.00 72 1014.8
20240423204458 82 131 4.0 8.0 0.00 0.01 0.00 72 1014.8
20240423203737 82 356 4.0 9.0 0.00 0.01 0.00 71 1014.9
20240423202703 81 207 5.0 9.0 0.00 0.01 0.00 73 1015.0
20240423202205 81 147 3.0 9.0 0.00 0.01 0.00 74 1015.1
20240423201739 81 261 4.0 9.0 0.00 0.01 0.00 75 1015.2
20240423200703 81 308 4.0 7.0 0.00 0.01 0.00 74 1015.5
20240423200456 81 290 2.0 7.0 0.00 0.01 0.00 74 1015.5
20240423195704 81 162 3.0 9.0 0.00 0.01 0.00 74 1015.5
20240423195204 81 309 4.0 9.0 0.00 0.01 0.00 75 1015.5
20240423194706 81 342 5.0 9.0 0.00 0.01 0.00 75 1015.6
20240423194204 81 285 5.0 10.0 0.00 0.01 0.00 75 1015.6
20240423193701 81 8 5.0 11.0 0.00 0.01 0.00 74 1015.6
20240423193201 81 189 4.0 11.0 0.00 0.01 0.00 77 1015.8
20240423192702 80 169 3.0 5.0 0.00 0.01 0.00 77 1015.9
20240423192456 80 161 2.0 5.0 0.00 0.01 0.00 79 1016.0
20240423191703 79 98 2.0 9.0 0.00 0.01 0.00 80 1016.0
20240423191159 78 248 2.0 9.0 0.00 0.01 0.00 80 1016.1
20240423190653 78 190 2.0 6.0 0.00 0.01 0.00 81 1016.3
20240423190151 78 159 2.0 7.0 0.00 0.01 0.00 81 1016.2
20240423185650 78 165 4.0 9.0 0.00 0.01 0.00 81 1016.1
20240423185146 78 79 3.0 9.0 0.00 0.01 0.00 81 1016.3
20240423184640 78 314 4.0 7.0 0.00 0.01 0.00 81 1016.1
20240423184136 78 220 2.0 6.0 0.00 0.01 0.00 82 1016.2
20240423183708 78 181 1.0 4.0 0.00 0.01 0.00 83 1016.2
20240423182645 78 252 4.0 6.0 0.00 0.01 0.00 81 1016.3
20240423182132 79 270 2.0 7.0 0.00 0.01 0.00 80 1016.3
20240423181634 79 74 3.0 7.0 0.00 0.01 0.00 78 1016.2
20240423181133 79 356 2.0 7.0 0.00 0.01 0.00 79 1016.3
20240423180644 79 90 2.0 5.0 0.00 0.01 0.00 79 1016.4
20240423180124 79 336 2.0 6.0 0.00 0.01 0.00 79 1016.7
20240423175917 79 11 3.0 8.0 0.00 0.01 0.00 79 1016.6
20240423175116 79 167 4.0 8.0 0.00 0.01 0.00 79 1016.6
20240423174614 79 357 3.0 6.0 0.00 0.01 0.00 79 1016.8
20240423174110 79 331 3.0 6.0 0.00 0.01 0.00 80 1016.8
20240423173609 78 250 4.0 9.0 0.00 0.01 0.00 80 1016.9
20240423173107 78 236 3.0 9.0 0.00 0.01 0.00 80 1017.1
20240423172606 78 250 3.0 7.0 0.00 0.01 0.00 80 1017.2
20240423172117 78 250 4.0 6.0 0.00 0.01 0.00 81 1017.3
20240423171605 78 142 3.0 7.0 0.00 0.02 0.00 80 1017.3
20240423171105 78 301 2.0 7.0 0.00 0.02 0.00 81 1017.3
20240423170602 78 103 2.0 6.0 0.00 0.03 0.00 80 1017.3
20240423170100 78 256 2.0 6.0 0.00 0.04 0.00 82 1017.3
20240423165601 78 77 3.0 6.0 0.00 0.05 0.00 82 1017.2
20240423165102 77 283 2.0 7.0 0.00 0.06 0.00 82 1017.2
20240423164601 76 256 4.0 7.0 0.00 0.06 0.00 83 1017.3
20240423164401 76 351 3.0 7.0 0.00 0.07 0.00 83 1017.3
20240423163601 76 134 3.0 7.0 0.00 0.09 0.00 83 1017.4
20240423163354 76 106 3.0 7.0 0.00 0.10 0.00 83 1017.5
20240423162559 76 143 3.0 6.0 0.00 0.14 0.00 84 1017.2
20240423162059 76 322 2.0 8.0 0.00 0.15 0.00 85 1017.3
20240423161553 76 164 6.0 8.0 0.00 0.15 0.00 83 1017.2
20240423161049 76 44 3.0 8.0 0.00 0.16 0.00 83 1017.4
20240423160545 76 185 2.0 6.0 0.00 0.17 0.00 84 1017.4
20240423160042 76 193 3.0 6.0 0.00 0.17 0.00 84 1017.4
20240423155541 75 196 3.0 9.0 0.00 0.19 0.00 84 1017.5
20240423155038 75 108 4.0 9.0 0.00 0.21 0.00 85 1017.4
20240423154536 75 101 4.0 7.0 0.00 0.21 0.00 85 1017.4
20240423154034 74 134 3.0 7.0 0.00 0.21 0.00 85 1017.4
20240423153534 74 37 4.0 7.0 0.00 0.21 0.00 85 1017.4
20240423153414 74 51 3.0 8.0 0.00 0.21 0.00 86 1017.4
20240423152031 73 108 3.0 7.0 0.00 0.22 0.00 87 1017.4
20240423151531 73 258 2.0 7.0 0.00 0.22 0.00 87 1017.4
20240423151030 72 296 3.0 7.0 0.00 0.22 0.00 87 1017.3
20240423150531 72 172 3.0 5.0 0.00 0.22 0.00 87 1017.4
20240423150030 72 238 2.0 6.0 0.00 0.22 0.00 88 1017.5
20240423145528 71 277 2.0 6.0 0.00 0.22 0.00 88 1017.4
20240423145030 71 158 2.0 7.0 0.00 0.22 0.00 88 1017.5
20240423144529 71 257 3.0 7.0 0.00 0.22 0.00 88 1017.6
20240423144029 71 241 3.0 7.0 0.00 0.22 0.00 88 1017.6
20240423143529 71 14 3.0 5.0 0.00 0.22 0.00 88 1017.6
20240423143030 70 207 4.0 6.0 0.00 0.22 0.00 88 1017.5
20240423142529 70 141 3.0 6.0 0.00 0.22 0.00 89 1017.6
20240423142032 70 102 2.0 4.0 0.00 0.22 0.00 89 1017.5
20240423141544 69 182 2.0 4.0 0.00 0.22 0.00 90 1017.5
20240423141032 69 141 2.0 3.0 0.00 0.22 0.00 90 1017.5
20240423140532 69 302 1.0 2.0 0.00 0.23 0.00 90 1017.4
20240423140044 69 43 0.0 2.0 0.00 0.23 0.00 90 1017.5
20240423135529 69 284 1.0 2.0 0.00 0.23 0.00 91 1017.4
20240423135323 68 295 0.0 2.0 0.00 0.23 0.00 91 1017.5
20240423134532 68 281 0.0 1.0 0.00 0.23 0.00 91 1017.4
20240423134030 68 179 0.0 1.0 0.00 0.23 0.00 91 1017.5
20240423133811 68 316 0.0 1.0 0.00 0.23 0.00 91 1017.4
20240423133030 68 246 0.0 1.0 0.00 0.23 0.00 91 1017.5
20240423132529 68 250 0.0 1.0 0.00 0.23 0.00 91 1017.4
20240423132029 67 32 0.0 1.0 0.00 0.23 0.00 91 1017.4
20240423131530 67 164 0.0 1.0 0.00 0.23 0.00 91 1017.4
20240423131029 67 139 0.0 1.0 0.00 0.23 0.00 91 1017.4
20240423130529 67 139 0.0 1.0 0.00 0.23 0.00 91 1017.4
20240423130030 67 43 0.0 1.0 0.00 0.23 0.00 91 1017.3
20240423125530 67 336 0.0 1.0 0.00 0.23 0.00 91 1017.4
20240423125315 67 279 0.0 1.0 0.00 0.23 0.00 91 1017.4
20240423124533 67 297 0.0 1.0 0.00 0.23 0.00 91 1017.4
20240423124033 67 104 0.0 1.0 0.00 0.23 0.00 91 1017.3
20240423123534 67 155 0.0 1.0 0.00 0.23 0.00 91 1017.3
20240423123033 67 280 0.0 1.0 0.00 0.23 0.00 91 1017.2
20240423122534 67 280 0.0 1.0 0.00 0.23 0.00 91 1017.2
20240423122029 67 18 0.0 1.0 0.00 0.23 0.00 91 1017.2
20240423121800 67 196 0.0 1.0 0.00 0.23 0.00 91 1017.0
20240423121019 67 252 0.0 2.0 0.00 0.23 0.00 91 1017.1
20240423120517 67 299 0.0 2.0 0.00 0.23 0.00 91 1017.1
20240423120014 66 107 1.0 2.0 0.00 0.23 0.00 91 1017.1
20240423115509 66 295 0.0 2.0 0.00 0.23 0.00 91 1017.1
20240423115005 66 186 1.0 2.0 0.00 0.23 0.00 91 1016.9
20240423114505 66 230 1.0 1.0 0.00 0.23 0.00 91 1017.1
20240423114257 66 28 0.0 2.0 0.00 0.23 0.00 91 1017.0
20240423113505 66 316 1.0 2.0 0.00 0.23 0.00 91 1017.0
20240423113005 66 288 0.0 1.0 0.00 0.23 0.00 90 1017.1
20240423112748 66 137 0.0 1.0 0.00 0.23 0.00 90 1017.1
20240423112000 66 181 0.0 1.0 0.00 0.23 0.00 90 1017.1
20240423111501 67 185 0.0 1.0 0.00 0.23 0.00 90 1017.1
20240423111246 67 214 0.0 1.0 0.00 0.23 0.00 90 1017.1
20240423110746 66 186 0.0 1.0 0.00 0.23 0.00 90 1017.0
20240423110001 66 242 0.0 1.0 0.00 0.23 0.00 90 1017.0
20240423105502 66 198 0.0 1.0 0.00 0.23 0.00 90 1017.0
20240423105001 66 216 0.0 1.0 0.00 0.23 0.00 90 1017.0
20240423104505 66 304 0.0 2.0 0.00 0.23 0.00 90 1016.9
20240423104004 66 275 0.0 2.0 0.00 0.23 0.00 90 1017.0
20240423103505 66 300 0.0 1.0 0.00 0.23 0.00 90 1016.9
20240423103006 66 87 0.0 1.0 0.00 0.23 0.00 90 1016.9
20240423102502 66 354 0.0 1.0 0.00 0.23 0.00 90 1016.9
20240423102002 66 225 0.0 1.0 0.00 0.23 0.00 90 1017.0
20240423101502 66 26 0.0 1.0 0.00 0.23 0.00 90 1016.9
20240423101253 66 127 0.0 1.0 0.00 0.23 0.00 90 1016.8
20240423100502 66 184 0.0 1.0 0.00 0.23 0.00 90 1016.9
20240423100049 66 325 0.0 1.0 0.00 0.23 0.00 90 1016.9
20240423095002 66 4 0.0 1.0 0.00 0.23 0.00 90 1016.9
20240423094505 65 345 0.0 1.0 0.00 0.23 0.00 91 1016.8
20240423094309 65 155 0.0 1.0 0.00 0.23 0.00 91 1017.0
20240423093505 65 155 0.0 1.0 0.00 0.23 0.00 91 1017.0
20240423093000 65 60 0.0 1.0 0.00 0.23 0.00 91 1017.1
20240423092733 65 202 0.0 1.0 0.00 0.23 0.00 91 1017.0
20240423091947 65 16 0.0 1.0 0.00 0.23 0.00 91 1017.0
20240423091443 65 56 0.0 1.0 0.00 0.23 0.00 91 1017.0
20240423090942 65 349 0.0 0.0 0.00 0.23 0.00 91 1017.0
20240423090722 65 349 0.0 0.0 0.00 0.23 0.00 91 1017.1
20240423090229 65 349 0.0 0.0 0.00 0.23 0.00 91 1017.1
20240423085437 65 349 0.0 0.0 0.00 0.23 0.00 91 1017.1
20240423084932 64 349 0.0 0.0 0.00 0.23 0.00 90 1017.0
20240423084708 64 349 0.0 1.0 0.00 0.23 0.00 90 1017.1
20240423083934 65 349 0.0 1.0 0.00 0.23 0.00 90 1017.0
20240423083434 65 202 0.0 1.0 0.00 0.23 0.00 90 1017.0
20240423082934 65 185 0.0 1.0 0.00 0.23 0.00 90 1017.1
20240423082430 65 229 0.0 0.0 0.00 0.23 0.00 90 1017.2
20240423081930 65 229 0.0 0.0 0.00 0.23 0.00 90 1017.3
20240423081430 65 229 0.0 0.0 0.00 0.23 0.00 90 1017.2
20240423080930 65 229 0.0 0.0 0.00 0.23 0.00 90 1017.2
20240423080715 65 229 0.0 0.0 0.00 0.23 0.00 90 1017.3
20240423075929 65 229 0.0 0.0 0.00 0.23 0.00 90 1017.4
20240423075715 65 229 0.0 1.0 0.00 0.23 0.00 90 1017.4
20240423074928 65 229 0.0 1.0 0.00 0.23 0.00 89 1017.5
20240423074434 65 15 0.0 0.0 0.00 0.23 0.00 89 1017.5
20240423073934 65 207 0.0 0.0 0.00 0.24 0.00 89 1017.6
20240423073435 65 207 0.0 0.0 0.00 0.24 0.00 89 1017.6
20240423073209 65 207 0.0 0.0 0.00 0.24 0.00 88 1017.7
20240423072434 65 207 0.0 0.0 0.00 0.24 0.00 88 1017.7
20240423071930 65 207 0.0 1.0 0.00 0.24 0.00 88 1017.7
20240423071431 66 76 0.0 1.0 0.00 0.24 0.00 88 1017.7
20240423070930 66 351 0.0 1.0 0.00 0.24 0.00 88 1017.9
20240423070430 66 260 0.0 1.0 0.00 0.24 0.00 88 1018.0
20240423065929 66 266 0.0 1.0 0.00 0.24 0.00 88 1018.1
20240423065430 66 44 0.0 2.0 0.00 0.24 0.00 88 1018.3
20240423064929 66 46 0.0 2.0 0.00 0.24 0.00 88 1018.3
20240423064433 66 188 0.0 1.0 0.00 0.24 0.00 88 1018.5
20240423064223 66 342 0.0 1.0 0.00 0.24 0.00 88 1018.6
20240423063717 67 194 0.0 1.0 0.00 0.24 0.00 88 1018.6
20240423062934 67 307 0.0 1.0 0.00 0.24 0.00 88 1018.7
20240423062721 67 327 0.0 1.0 0.00 0.24 0.00 88 1018.6
20240423061930 67 223 0.0 1.0 0.00 0.24 0.00 88 1018.8
20240423061430 67 212 0.0 1.0 0.00 0.24 0.00 88 1018.8
20240423060931 67 255 0.0 1.0 0.00 0.24 0.00 88 1019.0
20240423060430 67 290 0.0 1.0 0.00 0.24 0.00 88 1019.0
20240423055930 67 107 0.0 0.0 0.00 0.24 0.00 88 1019.2
20240423055429 66 289 0.0 0.0 0.00 0.24 0.00 88 1019.4
20240423054929 66 289 0.0 0.0 0.00 0.24 0.00 88 1019.3
20240423054430 67 289 0.0 0.0 0.00 0.24 0.00 88 1019.3